RH
11 15 19 20 21 20 30 38 12 7 6 6 5 4 4 12 37 69 33 24 19 35 26 14 14 21 26 22 25 26 24 26 24 21 20 18 16 16 9 7 6 7 14 18 18 18 19 16 12
22 16 19 21 18 50 37 39 16 12 10 9 9 9 8 7 8 10 12 10 11 12 14 15 21 33 28 27 25 27 26 31 32 20 17 14 14 15 11 12 6 6 8 16 20 20 20 17 16
27 25 23 21 21 46 47 44 30 18 15 12 12 13 17 15 12 12 13 13 13 14 18 29 29 30 30 30 30 30 30 31 35 31 24 26 21 20 22 16 8 7 7 10 21 23 24 21 18
30 28 24 20 37 54 43 25 23 21 18 15 14 15 18 21 19 19 20 22 24 22 24 26 26 26 31 33 33 28 25 24 33 32 24 26 26 46 53 35 19 13 10 7 16 24 22 23 19
31 23 22 24 55 41 26 25 26 24 22 20 17 16 18 21 22 23 24 22 22 23 29 31 33 36 35 31 29 26 21 18 22 27 24 25 29 28 23 49 45 29 14 7 10 22 24 23 22
21 25 25 68 79 22 22 26 27 28 27 26 22 19 18 19 24 29 34 33 33 34 36 38 42 43 47 50 47 35 27 24 21 21 24 34 48 42 22 22 49 57 41 16 8 11 22 24 24
22 25 29 73 80 25 21 27 29 30 34 33 30 28 25 22 22 21 23 27 28 33 32 35 41 47 50 52 48 43 41 28 27 27 24 22 26 59 61 41 35 41 80 57 26 14 12 22 25
25 28 28 35 56 38 21 29 32 35 22 37 35 32 32 31 30 28 28 32 35 37 37 38 43 50 51 51 48 48 46 34 26 27 26 23 20 23 28 57 60 45 45 57 82 37 24 21 22
26 29 43 58 38 64 28 32 35 39 37 39 38 36 40 39 39 39 38 39 41 41 43 46 45 44 48 46 50 47 42 37 38 38 38 36 32 28 29 35 49 58 52 39 48 67 73 33 27
22 32 69 25 26 27 28 37 38 40 35 37 42 46 46 47 47 47 45 44 51 50 54 63 67 55 45 43 46 47 42 41 51 53 52 49 47 43 40 35 42 46 44 44 36 26 39 73 57
21 25 19 26 22 27 26 30 35 42 36 34 47 50 50 52 52 48 47 51 51 26 16 37 47 46 44 40 30 28 42 40 33 26 22 22 23 23 28 34 40 46 63 67 60 55 49 59 80
23 22 22 18 23 24 27 26 29 36 34 38 51 49 52 53 58 55 56 49 15 12 11 10 9 9 9 9 9 9 8 8 8 7 6 7 7 6 6 6 7 8 9 20 45 76 59 62 89
25 26 26 26 29 26 26 27 26 34 38 41 46 45 45 48 35 20 16 14 12 10 9 8 8 8 8 8 8 8 8 8 9 10 11 13 14 16 15 13 9 7 5 5 7 22 58 58 45
15 16 22 30 36 33 30 23 26 28 35 38 42 43 38 35 33 14 13 12 10 9 9 10 10 9 9 8 8 7 7 7 7 8 9 10 11 11 11 13 16 15 12 9 6 6 7 30 65
16 13 11 12 19 27 32 23 21 21 37 37 34 27 23 21 14 12 15 14 13 12 12 12 10 9 9 10 9 8 7 7 7 7 8 8 9 9 10 11 12 14 16 15 14 11 8 8 20
11 13 13 12 9 8 12 16 14 10 20 32 30 24 26 24 16 10 10 12 13 13 12 12 11 9 7 8 8 8 8 8 9 9 10 10 9 10 10 9 9 10 12 15 16 16 14 11 10
13 13 16 15 13 12 9 8 7 7 8 8 13 16 15 11 9 10 12 11 10 10 10 11 11 9 6 6 7 8 9 10 10 10 11 12 12 11 12 10 10 9 9 9 13 16 16 14 11
20 39 15 17 25 16 20 20 20 13 10 7 6 6 5 5 4 5 5 6 6 6 7 7 6 6 6 7 8 9 10 11 10 10 12 14 12 13 12 10 8 9 11 12 13 11 15 16 14
16 11 11 15 21 21 25 30 38 33 24 27 24 20 18 15 13 14 12 11 9 9 8 8 8 8 9 10 10 11 11 10 11 13 13 15 15 14 12 9 8 8 12 14 15 13 12 13 15
52 39 20 18 18 16 15 14 16 21 26 34 37 37 36 36 33 32 31 32 32 30 27 22 19 17 15 14 14 15 16 16 16 18 18 18 17 15 13 13 13 15 13 13 13 13 14 12 12
38 38 40 39 38 37 37 36 35 33 31 27 28 28 26 26 27 29 30 30 30 30 32 33 32 31 28 25 23 22 20 21 20 18 19 20 18 14 14 17 16 15 13 14 14 12 10 12 10
35 35 34 34 33 32 35 28 36 41 41 32 34 35 37 40 40 38 38 37 36 35 35 35 34 33 32 31 30 28 24 20 20 20 18 20 20 17 18 18 14 11 8 5 5 5 3 3 3
40 38 42 43 43 41 35 37 28 48 56 35 34 31 32 30 29 29 29 29 31 33 33 32 32 32 32 29 26 24 24 25 24 26 32 26 25 21 13 5 4 4 3 3 3 3 3 4 4
42 42 42 39 33 35 37 81 29 47 76 85 37 30 25 24 24 24 24 26 27 28 28 28 30 31 34 36 39 44 50 52 45 36 28 23 9 3 5 9 13 13 15 19 22 17 14 13 10
34 28 24 23 91 91 100 100 100 76 42 57 51 38 49 44 49 50 45 45 45 45 48 53 59 58 60 65 67 69 61 51 37 25 12 4 6 11 12 23 26 20 18 17 20 24 15 14 18
14 16 35 81 78 94 100 99 100 92 29 36 40 43 50 56 65 73 79 83 82 89 92 91 90 83 80 79 75 60 21 9 9 8 12 18 24 33 32 24 37 31 24 23 24 22 20 17 17
17 14 12 16 10 20 12 22 74 41 38 56 54 77 80 85 93 81 80 85 89 94 98 98 90 81 74 65 27 8 15 18 24 26 28 26 26 37 44 58 56 33 22 24 26 27 24 23 19
11 12 15 58 60 95 100 100 100 94 100 100 98 79 73 88 92 97 100 100 99 95 93 93 88 62 26 12 13 23 23 39 34 36 42 37 38 57 52 50 53 33 33 36 33 27 45 42 35
93 53 83 80 98 93 77 94 100 91 88 86 71 69 83 97 100 99 100 98 90 83 90 67 35 21 18 39 39 45 52 40 41 47 47 41 49 62 62 55 45 32 32 28 43 35 59 59 52
14 9 90 100 85 88 100 88 100 99 93 91 78 75 99 100 85 93 98 97 91 97 88 41 28 47 60 52 63 74 57 42 50 41 44 44 47 52 53 49 49 42 49 50 60 65 72 69 56
Wind_Speed
25 24 24 22 20 20 14 27 25 28 27 24 22 25 27 27 22 26 21 23 25 24 27 27 27 27 28 29 29 29 28 27 25 23 22 20 21 20 18 18 16 16 16 15 16 17 17 16 15
27 26 25 23 19 13 13 34 22 28 24 25 25 25 26 25 27 26 29 30 30 30 30 30 29 30 29 29 29 29 29 30 29 25 23 22 22 22 18 17 18 17 17 17 16 17 17 18 17
30 25 25 21 18 12 21 36 25 24 24 26 27 26 23 23 26 28 30 30 30 32 30 31 31 30 31 31 31 32 32 33 33 30 28 25 23 23 22 18 17 19 19 18 18 18 17 19 18
26 24 22 18 15 21 35 29 24 25 24 25 25 26 24 24 25 28 29 29 30 31 33 33 33 33 33 36 35 32 33 33 34 31 29 28 26 24 23 21 19 18 19 20 20 19 18 19 19
21 21 19 16 15 29 26 26 23 25 24 25 26 24 25 25 26 28 28 30 31 32 32 33 34 34 36 36 37 35 34 34 35 33 30 28 26 26 24 23 23 21 19 19 21 22 20 21 21
17 17 13 10 16 23 24 22 22 23 22 23 27 23 25 25 28 29 29 31 32 34 34 35 36 36 35 35 35 36 35 34 34 33 31 27 26 25 24 24 23 25 23 21 20 22 23 23 23
14 14 13 13 20 21 24 21 21 23 21 25 21 26 25 27 29 30 31 33 33 34 36 36 36 36 37 37 37 38 36 35 33 32 30 28 26 25 24 25 25 24 25 25 23 22 23 26 25
15 14 15 14 19 23 18 21 22 25 24 22 24 27 27 27 29 31 32 33 34 35 37 40 40 39 37 37 36 38 39 36 34 31 31 29 28 27 27 28 27 27 27 26 28 28 25 26 27
15 15 12 14 17 24 15 21 22 24 24 25 27 27 27 28 29 30 33 33 34 35 38 41 42 41 37 37 40 39 38 37 35 34 32 31 30 29 30 29 29 30 28 27 30 29 27 29 30
16 14 17 20 22 25 20 24 18 24 25 27 28 28 26 28 28 29 29 28 28 29 31 33 34 36 35 36 37 38 36 36 36 37 35 33 33 33 32 34 32 33 33 31 29 30 31 27 31
16 20 19 22 23 25 24 25 21 24 26 22 26 27 27 28 27 27 27 27 30 30 28 28 28 30 33 34 33 32 35 34 32 32 32 33 34 33 34 34 35 36 36 35 35 34 32 32 32
17 21 23 25 24 26 28 28 26 26 28 24 24 25 27 27 27 27 27 29 30 29 26 26 26 26 26 27 26 25 25 26 27 27 28 28 30 32 34 34 35 36 37 38 38 36 36 34 35
20 22 24 25 25 26 29 31 31 28 28 29 29 30 30 30 30 29 30 29 29 27 26 24 24 26 25 26 27 28 28 29 30 30 31 31 33 34 35 37 40 40 38 39 40 39 38 38 37
21 24 25 25 26 27 29 34 31 32 30 33 35 35 34 33 34 33 33 32 32 31 30 30 30 31 32 32 34 35 37 37 38 38 38 38 39 40 42 44 44 44 47 46 45 45 42 41 39
24 24 25 27 29 30 30 34 32 38 34 35 36 36 35 35 36 36 37 37 37 37 37 37 38 39 39 39 39 40 41 42 43 44 44 45 46 48 49 50 53 53 52 51 51 49 48 46 45
27 26 25 34 27 33 30 30 39 32 33 38 37 38 38 38 39 40 42 43 43 43 44 45 46 46 46 45 45 46 46 46 47 46 47 48 49 52 53 54 55 56 59 58 56 53 53 51 48
31 31 30 34 34 36 33 33 42 40 36 40 40 41 42 42 43 42 44 46 48 49 50 51 52 53 53 52 51 52 52 52 52 52 52 52 54 56 55 54 55 57 60 62 63 59 56 55 52
34 32 35 36 38 41 37 40 44 46 44 45 45 46 47 48 48 47 48 49 50 52 53 54 55 57 58 58 59 58 58 58 58 57 57 57 58 57 55 55 57 61 64 65 64 66 61 57 57
42 43 46 44 44 48 46 46 46 54 53 49 49 51 53 53 52 53 53 54 56 57 58 60 61 62 62 63 64 63 61 60 59 59 60 59 57 57 58 58 59 61 63 61 62 61 62 60 59
45 47 49 50 51 53 54 52 51 52 59 58 52 57 57 56 55 55 56 57 59 60 61 63 63 64 64 64 64 62 60 59 59 58 58 58 59 60 61 63 63 63 62 63 64 63 63 62 62
45 48 50 54 56 56 58 55 55 55 58 63 60 60 60 60 60 59 59 60 61 62 62 61 61 61 61 60 60 59 57 57 57 56 58 62 62 62 63 62 61 61 62 63 63 61 61 62 62
50 51 54 55 57 57 57 60 53 52 55 61 60 60 58 55 56 59 58 58 58 59 59 58 57 56 56 55 55 55 55 56 56 58 60 61 61 61 61 62 63 60 59 58 60 62 61 61 62
54 56 56 57 58 59 58 58 59 48 49 61 60 58 52 52 52 53 53 54 55 55 55 54 54 54 54 54 55 54 55 57 58 59 60 59 58 59 58 52 50 50 53 55 54 53 52 52 54
53 53 53 52 51 55 53 40 55 44 41 49 58 47 47 49 48 49 50 51 51 51 51 51 52 52 53 53 53 55 56 57 57 58 57 55 50 48 46 47 44 43 42 43 40 42 47 51 54
47 47 47 45 34 38 31 32 28 41 47 46 42 44 44 46 45 44 45 45 46 46 47 46 47 48 50 52 52 52 51 50 51 51 49 43 42 41 42 38 38 39 39 41 42 47 49 50 56
39 40 36 33 32 29 25 32 31 38 45 40 43 41 40 40 40 39 37 36 38 40 42 44 46 46 47 47 46 44 42 40 42 43 42 38 37 34 34 33 34 34 35 39 46 45 47 53 56
29 30 28 32 33 38 37 35 34 37 37 38 38 35 33 32 31 31 33 34 34 35 37 38 39 38 38 38 37 36 32 36 39 40 39 38 37 34 35 35 39 38 37 40 41 42 50 53 56
27 26 29 29 30 27 21 20 26 28 27 30 32 35 35 32 28 28 27 27 28 30 33 34 34 34 33 32 32 31 33 34 36 36 36 37 35 35 37 34 35 31 32 36 41 42 47 50 52
22 29 30 26 25 28 29 25 32 35 37 41 37 31 27 25 24 24 26 27 30 30 30 32 32 31 27 28 29 30 31 29 30 29 31 36 35 34 35 36 35 33 36 37 35 29 33 36 43
32 31 29 27 31 31 30 32 33 32 32 30 30 28 27 26 26 27 29 30 31 29 28 29 29 27 26 27 27 28 29 27 28 24 26 30 30 33 34 33 28 26 21 23 25 30 29 35 35
Wind_Direction
289 292 298 293 273 261 246 250 261 265 256 256 247 236 249 255 251 256 279 270 270 267 269 275 282 290 298 295 298 298 299 299 300 299 297 295 293 288 284 285 283 279 281 279 280 285 281 281 286
289 287 291 288 268 252 262 254 251 255 264 256 251 245 242 254 260 266 269 270 271 271 274 281 286 290 292 293 294 292 294 294 295 298 297 292 286 285 283 285 285 283 279 281 282 287 285 282 285
288 283 283 276 263 236 245 256 261 263 261 258 255 256 252 252 257 261 264 269 272 274 280 289 291 291 292 291 291 289 292 290 291 294 298 290 284 281 280 277 278 281 282 280 280 286 288 286 282
280 275 269 264 253 245 223 256 262 265 258 258 261 256 254 255 258 262 269 272 274 276 280 284 289 289 290 289 289 290 290 291 289 289 294 291 290 286 284 282 276 275 281 281 280 280 285 285 285
271 269 264 260 248 249 249 262 260 261 260 260 260 258 255 259 259 262 266 270 272 274 278 279 281 285 286 285 286 287 289 290 290 289 288 286 285 285 285 285 280 277 275 276 276 280 282 283 284
262 261 258 259 256 263 255 255 256 256 256 257 257 257 254 255 256 259 262 264 266 270 273 277 280 281 283 284 284 286 287 288 288 287 286 285 284 283 281 281 283 279 278 275 273 273 278 279 281
253 253 245 236 241 269 263 259 259 256 252 248 260 254 256 254 256 259 261 263 265 267 269 270 270 271 275 278 280 281 280 283 283 282 283 284 283 280 282 282 280 279 279 278 274 269 270 276 279
251 253 254 247 251 268 267 262 260 259 266 258 252 252 254 256 255 255 258 260 263 264 265 267 267 268 273 278 282 282 281 280 279 277 280 281 282 281 278 274 277 277 277 278 275 267 263 266 271
253 250 257 255 249 256 263 263 263 268 268 268 263 260 254 256 257 255 255 257 260 264 266 266 268 270 275 277 279 279 280 280 282 285 286 287 285 283 284 281 279 276 275 274 274 280 267 263 264
251 242 232 256 255 262 258 261 263 266 270 266 268 267 263 259 258 258 259 257 256 263 271 274 272 266 270 274 275 276 276 278 281 285 286 284 282 280 279 280 278 276 277 274 269 271 273 271 262
256 246 268 253 256 262 263 265 267 268 268 273 272 271 270 268 263 259 256 254 261 261 265 273 275 272 271 273 273 273 274 277 280 283 286 289 289 289 286 283 281 280 278 275 272 265 263 266 266
256 258 258 260 257 259 262 265 263 268 273 264 265 269 269 271 268 261 256 254 256 265 267 268 270 271 272 274 276 277 276 276 278 281 284 287 289 291 292 290 287 285 284 282 278 274 267 261 262
259 256 258 260 260 261 266 267 271 268 267 267 266 265 263 263 263 261 258 260 263 262 265 270 274 277 279 280 282 282 283 284 285 285 287 290 292 293 292 290 289 287 281 281 280 279 276 269 264
264 266 265 263 262 263 266 268 269 268 268 267 268 268 265 265 263 259 259 262 265 268 270 275 278 280 282 284 286 288 287 287 287 287 286 287 289 291 292 291 289 285 283 280 276 276 276 276 272
270 267 270 267 264 265 264 267 273 268 267 269 269 268 268 268 265 262 261 265 269 271 275 278 279 280 281 282 283 283 284 284 283 283 283 284 287 290 291 291 290 286 282 280 276 274 271 270 271
274 274 272 270 267 267 266 271 268 264 266 266 266 267 270 270 271 270 269 271 273 274 275 276 279 281 281 281 282 283 284 284 282 280 280 281 284 287 287 286 284 282 279 277 277 272 271 268 265
273 269 269 271 272 270 270 272 269 272 269 267 267 268 269 271 271 272 272 272 272 273 275 277 279 280 281 281 281 282 284 285 284 283 283 283 283 283 284 283 281 279 276 274 272 271 268 266 262
263 264 267 265 270 270 270 272 272 272 271 269 269 270 270 271 272 274 274 274 274 274 275 275 276 278 280 281 282 284 285 285 285 283 281 281 282 284 284 284 281 278 277 276 274 270 270 266 263
267 266 268 268 267 268 268 269 272 277 272 270 274 273 272 271 271 271 272 272 273 274 274 275 275 277 278 280 282 283 283 282 281 280 281 282 282 282 284 283 280 273 272 274 272 271 270 267 262
273 270 270 270 270 269 270 270 271 272 276 276 271 272 273 275 275 275 275 274 273 274 274 275 276 277 278 279 280 280 280 280 280 280 280 281 282 281 281 280 277 276 276 272 269 267 264 264 262
273 273 273 273 274 276 276 272 274 273 271 274 275 275 277 276 275 275 273 273 273 274 274 276 277 278 278 279 280 280 279 279 280 280 279 279 280 282 282 282 279 276 274 272 268 267 264 260 260
275 274 274 277 276 276 276 275 274 273 277 277 279 277 277 279 277 276 276 275 275 275 276 276 277 278 278 278 278 278 278 278 278 278 279 281 284 285 285 282 280 280 277 274 272 270 267 264 262
277 277 276 275 274 275 276 276 276 281 281 275 274 279 281 279 277 277 276 275 276 276 277 277 277 278 278 278 279 279 279 278 278 280 283 285 286 285 284 284 282 280 278 275 269 262 259 258 257
276 277 277 277 278 276 278 283 279 279 265 269 285 284 278 276 273 272 271 271 272 273 274 275 276 278 279 280 280 280 281 284 284 285 286 287 290 286 285 284 281 274 272 265 264 265 262 260 257
279 278 279 278 275 282 289 276 268 267 280 277 278 276 278 278 278 276 273 274 275 274 274 275 276 278 280 282 284 286 288 288 287 288 289 293 287 281 285 285 279 278 270 262 268 269 264 266 264
281 285 285 283 280 275 254 277 279 275 283 279 275 277 278 278 278 281 280 278 273 272 274 277 279 282 284 286 286 289 290 289 291 293 295 293 292 290 287 283 293 285 274 268 269 273 266 263 261
289 289 286 284 289 284 290 285 279 275 277 280 276 276 279 282 284 284 281 277 277 278 279 281 284 286 287 287 288 290 290 293 294 295 295 294 293 290 288 289 292 289 282 280 281 281 275 266 263
290 289 290 289 290 281 284 279 267 276 275 267 279 285 285 288 288 280 277 279 282 285 287 288 290 290 288 287 292 292 293 292 299 296 294 293 294 292 292 296 290 291 286 282 275 286 273 265 260
290 298 294 279 265 273 277 265 259 262 267 282 286 283 283 281 279 284 290 292 292 287 287 290 289 289 288 290 290 292 295 295 302 294 295 292 291 288 289 294 294 294 294 296 280 278 293 285 274
288 281 265 269 271 268 271 271 271 275 280 283 286 286 277 279 284 282 285 292 289 283 286 293 288 285 287 287 289 294 296 308 316 309 301 300 300 291 288 289 278 302 320 311 294 289 290 292 264